RH
26 26 28 32 35 41 52 61 67 70 73 80 87 94 99 101 102 101 99 96 93 89 84 83 82 76 66 57 52 51 48 45 42 40 40 42 44 46 46 47 49 51 55 60 64 67 69 71 74 74 75 76 77 77 75 74 73 73 72 69 67 65 61 56 54 59 69 66 56 55 60 58 53 53 53 51 47 44 40 36 33 31 28 23 19
29 28 31 34 37 44 55 63 68 73 80 89 96 100 102 102 102 102 100 97 94 90 90 90 82 70 60 55 52 50 47 43 41 40 42 44 45 47 48 49 52 55 60 64 67 68 68 67 67 67 66 66 64 62 60 58 57 56 55 52 50 48 44 40 36 36 42 43 37 34 35 35 32 29 29 28 26 24 22 20 19 18 17 16 16
32 31 35 37 38 45 57 66 74 82 91 98 101 102 102 102 101 101 100 97 94 92 90 86 75 62 57 53 50 47 44 41 40 42 44 45 46 48 49 51 55 59 63 66 67 64 60 58 58 57 53 50 46 44 41 39 38 37 36 34 33 32 29 27 25 24 25 27 25 23 23 23 22 20 19 18 17 16 16 15 15 15 16 18 20
33 34 36 37 39 47 61 75 86 94 99 101 101 102 102 102 103 103 101 98 98 94 84 73 64 57 53 50 46 43 40 40 42 44 45 46 47 49 51 54 59 62 65 65 61 55 50 48 47 43 37 33 31 28 26 25 23 23 23 22 22 22 21 21 20 21 21 22 23 22 21 22 22 21 20 19 19 18 18 18 19 19 21 22 23
33 33 35 37 42 55 73 89 98 101 101 100 101 101 101 103 103 103 103 101 98 88 73 63 58 53 49 46 42 40 39 41 44 45 46 47 48 51 55 58 62 66 64 59 51 44 41 38 33 28 24 21 20 19 18 18 18 18 19 19 20 20 21 22 22 23 23 23 24 24 23 24 24 24 23 22 22 22 21 22 22 22 22 22 23
32 34 38 44 55 72 91 102 104 101 100 100 101 101 103 104 100 100 104 98 83 69 61 57 53 49 46 43 40 39 40 43 45 46 48 50 52 56 59 63 66 65 58 48 39 34 30 26 22 19 18 17 17 17 18 18 19 20 21 21 22 22 23 23 23 22 22 22 22 22 22 23 23 23 23 22 23 23 22 22 22 22 22 21 21
35 39 46 56 71 88 102 108 105 100 100 101 102 103 104 102 100 102 98 82 65 58 56 53 49 46 43 40 39 39 42 45 46 49 51 54 58 60 63 65 63 55 44 34 29 25 22 19 18 18 18 19 19 20 21 21 21 22 22 22 21 21 21 20 20 20 20 20 20 20 20 21 22 22 22 21 22 22 22 22 22 21 21 20 20
42 47 55 67 83 97 105 106 103 100 101 103 103 103 101 100 102 98 82 63 55 54 52 48 46 43 41 39 40 42 46 49 51 53 56 57 58 59 58 55 47 37 28 24 22 20 19 19 20 20 20 21 21 21 21 21 21 20 20 19 19 18 18 19 19 19 19 19 19 19 20 21 21 22 21 21 21 21 21 21 21 20 20 19 18
47 53 62 76 91 102 107 107 105 103 103 102 101 101 103 104 97 80 62 53 52 50 47 46 44 42 41 41 44 47 49 51 52 53 53 52 50 48 43 36 28 23 20 20 19 20 20 21 21 21 21 20 20 20 19 18 18 17 17 17 17 17 18 19 19 20 19 19 20 20 20 21 21 21 20 20 20 20 20 19 19 19 18 18 18
49 56 69 85 96 103 108 110 107 104 103 103 102 102 103 99 81 60 51 50 49 47 45 44 42 40 41 42 43 45 45 46 47 46 44 41 36 33 27 22 19 19 20 20 20 21 21 20 20 19 19 18 17 17 16 16 16 16 16 16 16 17 18 19 20 20 19 20 20 21 20 20 20 19 19 20 19 19 19 18 18 18 18 18 16
52 63 78 91 99 104 109 109 106 104 104 104 105 102 95 82 62 50 50 49 45 44 42 39 37 35 35 36 37 39 40 40 41 39 34 29 24 22 19 18 19 20 21 20 20 19 18 18 17 16 16 16 15 15 15 15 15 15 15 16 17 18 19 19 20 19 19 20 20 20 19 19 19 18 19 19 19 19 18 18 18 17 16 15 13
56 69 83 94 102 106 107 106 104 104 104 103 103 94 77 61 51 47 47 44 41 40 36 32 31 31 32 34 36 37 38 37 35 30 24 20 19 19 18 19 20 20 19 18 17 16 15 15 15 14 14 14 14 14 14 14 15 16 17 18 19 19 19 18 18 19 19 20 19 19 19 18 18 18 18 18 18 18 17 17 16 14 12 11 9
59 73 86 98 104 104 103 103 104 105 104 98 92 78 59 49 46 44 41 39 37 34 31 29 30 31 33 35 36 37 35 31 26 22 19 18 19 19 19 19 18 16 16 15 14 14 14 14 14 13 13 13 13 14 14 15 17 18 18 19 19 19 18 17 17 18 19 19 19 18 17 17 17 17 17 16 16 15 14 13 11 10 8 8 7
62 77 91 101 104 103 104 105 103 102 97 85 73 62 51 45 43 40 37 36 32 29 28 29 30 32 34 35 34 31 26 22 19 18 18 18 18 18 17 16 15 14 14 13 13 13 13 13 13 13 13 13 13 14 16 17 18 19 19 19 19 18 17 16 17 17 17 17 17 17 16 15 15 15 14 13 12 11 10 9 8 7 7 7 7
68 85 98 103 104 105 107 105 99 95 87 73 60 52 46 42 39 36 33 30 27 26 27 29 31 32 32 30 27 22 18 18 18 18 18 17 16 15 15 14 14 13 13 13 13 13 13 13 13 13 13 14 15 16 17 18 19 19 19 18 18 17 15 15 15 16 16 15 15 15 14 13 12 11 10 9 9 8 8 7 7 7 7 7 7
80 96 102 102 103 105 106 101 94 86 75 63 53 46 41 37 34 31 27 24 24 26 27 29 31 30 27 23 19 17 17 17 17 16 16 15 14 14 14 14 14 13 13 13 13 13 13 13 13 14 15 16 17 17 17 17 17 17 17 16 16 15 14 14 14 14 14 13 12 12 11 10 9 8 8 8 7 7 7 7 7 7 7 7 7
92 101 102 101 103 104 101 95 88 79 66 55 46 41 36 33 29 25 23 23 25 27 29 29 27 23 20 17 16 16 16 15 15 15 14 14 14 14 14 14 14 13 13 13 13 13 14 15 16 17 17 17 17 16 16 16 16 15 15 14 14 13 13 12 12 11 11 10 9 8 8 7 7 7 7 8 7 7 7 7 7 7 7 7 7
99 102 102 104 106 102 96 89 80 68 56 46 40 36 31 27 24 22 23 25 27 28 28 24 20 17 16 16 16 15 14 14 14 14 13 14 14 14 14 14 13 13 13 14 15 15 16 17 17 17 17 16 15 15 14 14 13 12 12 12 11 11 10 9 9 8 8 8 7 7 7 7 7 7 7 7 7 7 7 7 7 7 7 7 7
101 101 102 105 104 98 89 80 68 55 45 39 35 30 25 22 22 23 25 28 28 25 22 18 16 16 15 15 14 14 13 13 13 14 14 14 14 13 13 13 13 14 15 16 17 17 17 17 16 15 14 13 12 12 11 10 10 10 9 9 8 8 8 7 7 7 7 7 7 7 7 7 7 7 7 7 7 7 7 7 7 7 7 7 6
102 102 103 104 99 89 78 66 55 45 39 34 29 25 22 21 23 25 27 26 23 19 16 15 15 15 14 14 13 13 14 13 13 14 13 13 13 13 13 14 15 16 17 17 17 16 15 13 12 11 10 10 9 9 8 8 8 8 8 8 7 7 7 7 7 7 7 7 7 7 7 7 7 7 7 7 7 7 7 7 7 6 6 6 6
103 104 105 99 88 76 64 54 46 39 34 28 23 21 22 23 25 26 24 20 17 15 14 14 14 13 13 13 13 13 14 14 13 13 13 13 14 14 15 16 16 16 16 14 13 12 11 10 9 8 8 7 7 7 7 7 7 7 7 7 7 7 7 6 6 6 7 7 7 7 7 7 7 7 7 7 7 7 7 6 6 6 6 6 6
103 104 99 86 71 62 54 47 41 34 27 23 21 21 23 24 24 22 18 15 14 14 14 13 13 13 13 13 13 13 13 13 13 13 13 14 15 15 15 15 14 13 12 10 9 9 8 8 7 7 7 7 7 7 7 7 7 7 7 7 7 6 6 6 6 6 6 7 7 7 7 7 7 7 7 7 6 6 6 6 6 6 6 6 7
104 97 85 69 60 54 48 41 34 27 22 20 21 22 24 23 20 16 14 14 14 13 13 13 12 13 13 13 13 13 13 13 13 14 14 15 14 14 13 11 10 9 8 8 8 8 7 7 7 7 7 7 6 6 6 6 6 7 7 6 6 6 6 6 7 7 7 7 7 6 6 6 6 6 6 6 6 6 6 6 6 6 7 7 8
96 83 69 59 54 48 41 33 26 21 20 20 22 23 22 18 15 14 13 13 13 12 13 13 13 13 13 13 13 13 13 14 14 14 14 13 12 11 9 8 8 7 7 7 8 7 7 7 7 7 7 6 6 7 6 7 7 7 7 7 6 6 6 7 7 7 6 6 6 6 6 6 6 6 6 6 6 6 6 7 7 7 8 8 8
80 68 60 54 47 40 33 27 21 19 20 22 22 21 17 14 13 13 13 12 12 12 12 13 13 13 13 13 13 13 13 13 13 12 11 10 9 8 7 7 7 7 7 7 7 7 7 7 7 7 7 7 7 7 7 7 7 7 7 6 6 6 6 6 6 6 6 6 6 6 6 6 7 6 6 7 7 7 7 8 8 8 8 9 9
68 58 52 46 40 33 26 21 18 20 22 22 19 16 13 13 13 13 12 12 12 13 13 13 13 13 13 13 14 13 13 12 11 10 9 8 7 7 7 7 7 6 6 7 7 7 7 7 7 7 7 7 7 7 7 7 6 6 6 6 6 6 6 6 7 6 6 6 6 7 7 7 7 7 7 8 8 8 8 8 9 9 9 8 8
57 49 43 39 34 27 20 18 20 22 21 18 15 13 12 13 12 12 12 13 12 13 13 13 13 13 14 13 13 12 11 10 9 8 8 7 7 7 7 6 6 6 6 6 6 7 7 7 7 7 7 7 7 6 6 6 6 6 6 6 6 6 7 7 7 7 7 7 7 7 7 8 8 8 8 9 9 9 9 9 9 8 8 8 8
50 44 38 32 26 20 18 20 21 20 17 14 12 12 12 12 12 12 12 13 13 13 12 13 13 14 13 12 11 10 9 8 8 8 8 7 7 6 6 6 6 6 6 6 6 6 6 6 6 6 6 6 6 6 6 6 6 7 6 6 7 7 7 7 7 7 7 7 8 8 9 9 9 9 9 9 9 9 8 8 8 8 8 8 9
43 39 33 25 19 17 19 21 19 16 13 12 12 12 12 12 12 12 12 12 12 13 13 14 14 13 12 10 9 8 8 8 8 8 7 7 7 6 6 6 6 6 6 6 6 6 6 5 6 6 6 6 6 6 6 7 7 7 7 7 7 7 8 8 8 8 9 9 9 10 10 10 10 9 9 9 8 9 9 8 9 9 8 9 9
38 33 25 19 17 19 20 19 15 12 12 11 12 12 11 12 12 12 12 12 12 13 14 13 12 11 9 9 8 8 8 8 8 7 7 7 7 7 7 7 7 7 6 6 6 6 6 6 6 6 6 7 7 7 7 7 7 8 8 8 8 8 8 9 9 9 10 10 10 10 10 10 9 9 9 9 9 9 9 9 9 9 9 9 10
33 25 19 17 19 20 18 14 12 11 12 11 11 11 11 12 12 12 12 13 13 13 13 11 10 9 8 8 8 8 8 7 7 7 7 7 7 7 7 7 6 6 6 6 6 6 6 6 7 7 7 7 7 7 8 8 8 8 8 9 9 9 9 10 10 10 10 10 10 10 10 10 10 9 9 10 10 10 9 9 10 10 10 10 10
26 19 16 18 20 17 14 12 11 12 11 11 11 11 11 11 11 12 13 13 13 12 10 8 8 8 8 8 8 7 7 7 7 7 7 7 7 6 6 6 6 6 7 7 6 7 6 6 7 7 7 7 8 8 8 8 9 9 9 9 10 10 10 10 10 10 10 10 10 10 10 10 10 10 10 10 10 10 10 10 10 10 11 11 11
19 16 18 19 17 13 11 11 12 11 11 11 11 11 11 11 12 12 12 12 11 9 8 8 8 8 8 8 7 7 7 7 7 7 7 7 6 6 6 7 6 6 7 7 7 7 7 7 8 8 8 8 8 9 9 9 10 10 10 10 10 10 10 10 10 10 10 10 10 10 10 10 10 10 11 11 11 11 11 11 11 11 11 11 11
16 18 19 16 13 11 11 12 11 11 11 11 11 11 11 12 13 12 11 9 8 7 8 8 8 7 7 7 7 7 8 7 7 7 6 6 7 7 7 7 7 7 7 7 7 7 7 8 9 9 9 9 9 10 10 10 10 10 10 9 9 9 9 10 10 10 10 10 10 10 10 10 10 11 11 12 12 12 12 12 12 12 12 12 12
17 19 16 12 11 11 12 11 11 11 11 11 11 12 12 13 12 10 9 7 7 7 8 7 7 7 7 7 7 8 7 7 6 6 6 6 7 7 7 8 8 8 8 8 8 8 9 9 10 10 10 10 10 10 10 10 10 9 9 9 9 9 10 10 10 10 10 10 10 10 10 10 11 11 12 12 13 13 13 13 12 12 12 12 12
18 15 11 11 11 11 11 11 11 11 11 11 12 12 12 11 10 8 7 7 8 8 7 7 7 7 7 8 8 7 7 7 7 7 7 7 7 7 8 8 8 8 9 9 9 10 10 10 10 10 10 10 10 10 10 9 9 9 9 9 9 10 10 10 10 10 10 10 10 10 11 11 12 12 13 13 13 14 13 13 13 13 13 13 13
15 11 10 11 12 11 11 11 11 11 11 12 12 12 11 9 8 7 7 8 8 7 7 6 7 7 8 8 7 7 7 7 7 7 7 7 7 8 8 8 9 10 10 10 10 11 11 11 11 10 10 10 10 10 9 9 9 9 9 10 10 10 10 11 10 10 10 10 11 11 11 12 12 13 13 13 14 14 14 14 14 14 14 14 15
11 10 11 11 11 11 11 10 10 11 12 12 11 10 8 7 7 8 8 8 7 7 7 7 7 7 7 7 7 7 7 8 8 8 8 8 9 9 9 10 11 11 11 11 11 11 11 11 11 10 10 10 10 10 10 10 10 10 10 10 10 10 11 11 11 11 11 11 12 12 12 13 13 14 14 14 14 15 15 15 15 16 16 16 16
10 11 11 11 11 11 10 11 11 12 12 11 9 8 7 7 8 8 8 7 7 7 7 7 7 7 7 7 7 7 8 8 9 9 9 10 10 11 11 11 11 11 11 12 12 12 12 12 11 11 11 10 10 11 10 10 10 10 10 11 11 11 12 12 12 12 12 12 13 13 13 14 14 15 15 15 16 16 16 17 17 16 16 16 16
11 12 10 10 11 10 11 12 12 12 10 9 7 7 7 7 8 8 7 7 7 7 8 8 8 7 7 7 7 8 8 9 9 9 10 11 11 11 12 11 12 12 12 12 12 12 12 12 12 11 11 11 11 11 11 11 11 11 11 12 12 12 12 13 13 13 13 13 14 14 14 15 15 16 17 17 17 18 17 17 17 16 16 17 17
12 11 10 10 10 11 12 12 11 10 9 7 7 7 8 8 8 7 7 7 7 8 8 8 8 7 7 7 8 8 8 9 9 10 11 11 11 12 12 12 12 12 12 12 13 13 12 13 13 12 12 12 12 12 12 13 13 13 13 13 13 14 14 14 14 14 14 14 15 15 15 16 17 18 18 18 18 17 17 17 18 18 19 20 20
10 10 10 10 11 11 12 11 10 9 7 7 7 8 8 8 8 7 7 7 8 8 8 8 8 8 8 8 8 9 9 10 10 10 11 11 11 12 12 12 12 13 13 13 13 13 13 13 13 13 14 14 14 14 14 14 14 15 15 15 15 15 15 15 15 16 15 16 16 16 17 18 18 18 18 18 18 18 19 20 21 22 23 24 24
10 10 10 10 12 12 11 10 9 7 7 7 8 8 8 8 7 7 7 8 8 8 9 8 8 8 8 9 9 9 10 10 11 11 11 11 12 12 12 12 13 13 13 13 13 13 14 14 14 14 15 15 15 16 16 16 16 16 16 17 17 17 17 17 17 17 17 17 17 18 18 19 19 18 18 19 20 21 23 24 25 26 26 26 27
10 10 10 11 12 11 10 9 7 7 7 8 8 8 8 8 7 7 8 8 8 9 9 9 9 9 10 10 10 11 11 11 12 12 12 13 13 13 13 13 13 13 14 14 14 14 14 14 14 15 15 15 16 16 16 17 17 17 17 18 18 18 18 18 18 18 18 18 18 18 18 18 18 19 21 23 25 26 27 28 28 29 30 31 33
11 11 11 12 12 10 9 8 7 7 8 8 9 9 9 8 8 8 8 8 9 9 10 10 10 11 11 11 12 12 13 13 13 14 14 14 15 15 15 15 16 16 15 16 15 15 15 15 15 15 15 16 16 16 17 17 18 18 19 19 19 19 19 19 18 18 18 18 18 18 19 21 23 25 26 28 29 30 31 33 34 36 37 39 39
11 11 12 12 10 9 8 7 7 8 8 8 9 9 9 9 9 9 9 9 10 10 10 11 12 12 12 13 13 14 14 15 15 16 16 17 18 18 18 18 18 18 18 19 19 18 18 18 17 17 17 17 17 17 17 18 18 19 19 20 20 20 20 19 19 19 20 20 21 23 24 26 28 29 31 33 35 37 39 41 42 43 43 44 44
11 12 12 11 9 8 7 7 7 8 8 9 10 9 9 10 9 9 9 10 10 11 11 12 12 12 13 14 14 15 15 16 17 18 19 19 20 20 20 20 21 21 21 21 21 21 21 21 21 21 20 20 19 19 19 19 20 20 20 21 21 22 22 23 23 24 24 25 27 28 29 31 33 36 38 41 43 44 45 46 46 47 49 51 54
12 13 11 10 8 7 7 7 8 8 8 9 10 9 10 10 9 9 10 10 10 11 12 12 13 13 14 14 15 16 16 17 19 20 20 21 22 22 23 23 24 25 25 25 25 26 26 26 26 26 25 25 24 24 24 23 23 23 23 24 24 25 26 26 27 28 29 31 33 35 37 40 42 44 46 47 48 49 50 52 54 58 62 67 71
13 12 10 9 7 7 7 7 8 8 9 9 9 9 10 10 9 10 11 11 11 12 12 12 13 14 14 15 16 17 17 19 20 21 22 23 24 25 26 27 28 28 29 30 30 31 31 31 32 32 31 31 30 30 30 30 30 31 31 31 32 33 34 35 36 37 39 41 43 44 47 49 50 52 53 54 56 59 62 65 70 75 79 82 84
12 11 10 8 6 7 7 7 8 8 9 9 9 9 9 9 10 10 11 11 12 12 13 13 14 14 15 16 17 18 19 20 21 22 24 26 27 28 29 30 30 31 31 32 33 34 34 35 35 35 35 35 35 36 37 37 38 39 40 40 41 42 42 44 45 46 48 50 52 54 56 58 60 63 66 69 73 77 81 85 87 88 88 88 87
12 10 9 7 7 7 7 7 8 9 9 9 9 9 9 10 10 11 11 12 12 13 13 14 14 15 16 17 18 19 20 22 23 25 27 28 29 30 31 31 32 33 34 34 35 36 36 36 37 38 39 40 40 41 42 43 43 44 46 47 49 51 53 55 58 61 64 67 70 72 75 77 80 84 87 90 93 94 95 95 93 92 90 90 89
Wind_Speed
103 103 104 106 108 110 110 111 112 113 114 114 115 115 116 117 119 121 123 125 127 129 130 129 128 128 127 126 126 126 125 125 125 123 121 119 117 116 115 114 114 113 113 113 113 113 113 112 112 112 112 111 110 110 110 110 110 110 110 109 109 110 110 110 107 104 104 106 108 108 109 110 110 111 111 111 110 110 109 108 108 107 107 106 105
105 105 106 108 110 112 113 114 114 115 115 116 116 117 118 120 122 125 127 129 131 132 132 131 130 129 129 128 128 128 128 127 127 125 123 121 119 118 118 117 117 117 117 117 117 117 117 116 116 115 115 114 113 113 113 113 112 112 111 111 111 111 111 111 109 106 105 106 107 108 109 109 109 109 109 109 108 107 106 104 103 101 99 98 97
108 108 108 110 113 115 116 116 116 116 116 117 117 119 121 123 125 128 130 132 134 134 133 132 131 131 131 131 131 131 130 129 128 126 124 123 122 121 121 121 121 121 121 122 122 121 120 119 119 118 117 116 116 115 114 114 113 112 111 111 110 110 110 109 108 105 103 102 103 105 105 105 105 104 104 104 102 101 99 97 95 92 89 88 88
109 110 110 112 114 116 117 117 117 117 117 118 119 121 124 126 129 131 133 135 135 135 134 133 133 133 133 133 133 133 132 131 129 127 126 125 125 125 125 125 125 125 126 126 125 124 123 122 121 120 118 117 116 115 114 112 111 110 109 108 107 106 105 104 103 101 98 96 97 98 99 98 98 98 97 96 95 93 91 89 87 85 83 83 83
111 112 113 114 116 117 118 118 118 118 119 120 122 125 127 130 132 134 136 137 137 136 135 135 136 136 136 136 135 135 134 132 130 129 128 128 128 128 129 129 129 130 130 129 128 126 125 123 121 119 117 115 113 111 110 108 107 105 104 103 102 101 100 99 98 97 95 93 92 94 94 94 94 94 93 92 90 89 87 86 85 84 83 82 82
113 114 115 116 117 118 119 119 119 120 121 123 125 128 131 133 136 137 139 139 138 138 138 138 139 139 138 138 137 136 135 133 132 131 131 132 132 132 132 133 133 133 132 131 129 126 124 121 118 116 113 111 108 107 105 103 102 100 99 98 98 98 97 97 97 97 95 93 92 91 92 92 92 92 92 91 89 87 86 86 85 84 83 82 82
115 116 117 118 119 120 120 121 121 123 124 126 128 131 134 136 138 140 141 141 140 140 141 141 141 140 140 139 139 138 136 135 135 135 135 135 135 135 135 135 135 134 132 129 126 123 120 117 113 111 108 106 104 103 101 100 99 98 97 97 97 97 97 97 97 96 95 93 92 91 90 90 91 91 90 89 88 86 85 85 85 85 84 83 83
116 117 118 119 120 121 122 123 124 126 127 129 132 135 137 139 141 143 143 143 143 143 143 143 142 142 141 141 140 139 137 137 137 137 137 137 137 137 136 135 134 131 127 124 120 117 114 111 108 107 105 104 102 101 100 99 98 97 96 96 97 97 97 97 96 95 94 93 91 90 90 89 89 90 89 87 86 85 84 84 84 85 84 84 83
119 120 120 121 122 123 125 126 127 129 131 133 136 138 140 142 144 145 145 146 146 146 145 144 143 143 142 141 140 138 138 138 138 138 138 138 137 136 134 132 128 124 120 116 113 111 109 107 106 105 104 103 102 101 100 99 98 97 97 97 97 97 96 96 96 95 94 92 91 90 89 89 89 89 88 86 85 84 84 83 83 83 83 84 84
121 122 122 123 124 126 128 129 130 132 134 136 139 141 143 145 146 147 148 148 148 147 145 144 143 142 141 140 139 138 138 139 139 139 139 137 135 133 130 125 120 116 113 111 109 108 107 106 105 105 104 103 103 102 101 100 99 98 98 97 97 97 96 96 95 94 93 92 91 90 89 89 89 88 87 86 85 84 84 84 83 83 83 84 84
123 124 124 125 127 128 130 131 133 135 137 140 142 144 146 148 148 149 149 149 147 146 145 144 143 143 141 141 140 140 141 141 141 140 138 135 131 127 123 118 115 113 111 109 108 107 106 106 105 105 104 103 102 102 101 101 101 100 99 98 98 97 96 95 94 94 93 92 91 91 90 90 89 89 87 87 86 85 85 84 83 83 83 83 83
125 125 126 127 129 130 132 133 135 138 140 143 145 147 149 150 151 151 150 149 148 147 146 146 145 144 143 143 143 143 143 142 141 139 135 129 125 121 117 114 113 113 111 110 109 107 106 106 105 105 104 103 102 102 101 101 101 100 100 99 98 97 96 95 93 93 93 93 93 92 91 90 89 89 88 86 86 85 85 84 83 83 82 81 80
126 127 128 129 130 131 133 135 137 140 143 145 148 150 152 153 154 153 152 151 150 149 148 147 146 145 144 144 144 144 143 140 137 132 127 123 120 118 115 114 114 113 112 111 109 108 107 106 105 105 104 103 102 101 101 101 100 100 100 99 98 98 97 95 94 94 94 94 93 92 91 89 88 87 87 86 85 85 84 83 82 80 78 76 75
128 129 130 131 132 133 135 137 140 143 146 149 151 154 156 156 156 154 153 152 151 150 149 147 146 145 145 145 144 142 138 133 129 125 121 119 118 117 115 115 115 114 113 111 110 109 107 106 105 104 103 103 102 101 101 100 100 100 100 99 99 99 98 95 94 94 93 92 91 90 90 88 86 86 86 84 83 82 81 79 77 75 73 71 70
130 131 132 132 134 135 138 140 143 147 150 154 157 159 159 158 156 154 154 153 152 150 148 147 146 146 145 143 140 136 131 126 123 120 119 118 118 117 116 115 115 114 112 111 109 108 106 105 104 103 103 103 102 102 101 100 100 100 100 99 99 99 97 94 92 91 90 89 88 88 87 86 84 83 83 81 79 78 75 73 71 69 68 66 65
133 133 134 135 136 138 141 144 148 152 155 159 161 161 159 157 156 156 155 154 152 150 148 148 147 146 143 138 133 129 125 122 121 120 119 118 118 117 116 115 114 113 111 110 108 107 105 104 103 103 103 102 102 102 101 100 100 99 98 97 97 96 94 92 90 89 88 87 86 84 84 83 81 79 77 76 74 72 70 68 66 64 63 62 61
134 135 136 136 138 141 145 149 153 157 160 163 163 161 159 158 158 157 155 153 151 150 150 148 146 142 136 131 127 125 123 122 121 120 119 118 117 116 115 114 112 111 109 108 106 105 104 104 103 103 103 103 102 101 100 99 98 96 95 94 93 92 91 89 87 86 84 83 82 80 78 77 76 74 72 70 69 67 65 63 62 60 59 58 57
136 137 137 139 141 145 150 154 158 162 164 164 162 160 160 161 159 157 154 153 152 151 149 146 140 135 130 127 125 124 123 121 120 119 117 116 115 114 112 111 110 108 107 106 105 105 104 104 103 103 102 102 100 99 97 95 93 92 90 89 89 88 87 85 83 81 79 78 76 74 73 71 70 69 67 65 64 62 60 59 57 56 55 54 53
138 139 140 142 146 150 155 159 163 165 165 163 162 162 162 161 158 155 154 153 152 149 144 139 133 129 127 126 124 123 122 120 118 117 116 114 113 111 110 109 108 107 106 106 105 105 104 103 102 100 99 97 96 93 91 89 88 86 85 84 84 82 81 79 77 75 73 72 71 69 68 66 65 63 61 60 59 57 55 54 53 51 51 50 48
140 141 143 147 151 155 160 164 166 166 165 164 164 164 162 159 156 155 154 152 148 143 137 132 129 127 126 125 123 121 120 118 116 115 113 111 110 109 108 107 106 106 105 104 104 103 101 99 97 95 93 91 89 87 85 83 82 80 79 79 78 77 75 73 72 70 68 67 66 64 63 61 59 58 56 55 54 52 51 49 48 47 47 46 44
143 144 147 152 156 160 165 167 167 166 166 166 165 163 160 157 156 154 151 147 141 136 132 130 128 126 125 123 121 119 118 116 114 112 111 109 108 107 106 106 105 104 103 101 99 97 95 93 91 89 87 85 83 81 79 78 76 75 74 73 72 71 70 68 66 65 63 62 61 60 58 56 54 53 52 51 49 47 46 45 44 44 43 42 41
146 148 152 157 161 165 168 169 168 167 167 166 164 161 158 157 155 151 145 139 135 132 131 129 127 125 123 121 119 117 116 114 112 110 109 108 107 105 104 103 101 99 98 95 93 91 89 87 86 84 82 80 78 76 74 73 71 70 69 68 67 66 64 63 61 60 59 57 56 55 53 52 50 48 47 46 44 43 42 41 40 40 40 39 37
149 153 158 162 166 169 170 169 168 168 167 165 162 159 157 155 150 144 139 135 133 131 130 128 126 124 121 119 117 115 113 111 110 109 108 106 104 102 100 98 96 94 92 89 87 85 83 82 81 79 77 76 74 72 70 69 67 66 65 64 62 61 59 58 56 55 54 53 52 50 49 47 45 44 42 41 40 39 38 38 37 37 36 36 35
154 158 163 167 170 172 171 169 169 168 166 163 160 158 155 150 144 138 135 133 132 130 128 126 124 122 120 117 115 113 111 110 108 107 105 103 101 98 96 93 91 89 86 84 82 80 79 78 77 75 74 72 70 68 67 65 63 62 60 59 58 56 54 53 52 51 50 48 47 46 44 42 41 40 38 37 36 36 35 35 34 34 33 33 33
159 164 168 172 173 172 171 170 169 167 164 161 159 155 149 143 138 136 134 132 130 128 126 124 122 119 117 114 113 111 110 108 106 104 102 99 97 94 92 89 86 84 81 79 78 76 75 74 73 71 70 68 66 64 62 60 58 57 55 54 53 52 50 49 48 47 45 44 43 42 40 38 37 36 35 34 33 33 33 32 32 31 31 31 32
165 169 172 174 174 172 172 171 168 165 162 159 154 148 142 138 136 135 133 131 129 126 124 121 118 116 114 112 111 109 107 105 103 100 98 96 93 90 87 85 82 79 77 75 73 72 71 69 68 66 65 64 62 60 57 55 54 52 51 50 49 48 46 45 44 43 41 40 39 38 37 35 33 33 32 31 30 30 30 30 29 29 29 30 30
169 173 175 175 173 173 172 170 166 163 159 154 147 141 137 136 134 133 131 129 126 123 120 117 115 113 112 111 109 107 104 102 100 97 95 92 89 87 84 81 78 76 73 71 69 67 65 63 62 60 59 58 57 55 53 51 50 49 47 46 45 44 42 41 40 39 38 36 35 34 33 32 30 29 29 29 28 28 28 28 28 27 27 28 28
174 176 176 174 174 173 171 168 164 160 154 147 141 138 136 134 132 130 128 125 122 119 116 114 112 111 110 109 107 104 101 99 96 94 91 89 86 84 81 78 76 73 70 67 65 63 61 58 56 55 54 53 52 50 48 47 46 45 44 43 42 40 39 37 36 35 35 33 32 31 30 29 27 27 26 26 26 26 25 26 26 25 25 25 25
176 176 175 175 173 171 169 165 160 153 146 140 137 136 134 132 129 127 124 121 118 115 113 112 111 110 108 106 103 101 98 96 93 90 88 85 83 81 78 76 73 70 67 65 62 59 57 54 52 51 49 48 47 46 45 43 42 41 40 39 38 37 35 34 33 32 31 30 29 28 26 25 24 24 24 24 24 23 23 23 23 23 23 23 22
177 176 175 174 172 169 166 160 153 146 141 138 135 133 130 128 126 123 119 116 114 112 111 110 109 106 104 101 98 96 94 92 89 86 84 82 80 77 74 71 68 65 63 61 59 56 54 52 49 48 46 45 44 43 41 40 39 38 37 35 34 33 32 30 29 29 28 27 26 24 23 22 21 21 21 21 21 21 21 20 21 21 20 20 19
177 176 175 172 170 166 160 152 145 141 139 136 133 130 127 124 120 117 115 113 112 111 110 107 104 101 98 96 93 91 89 87 84 82 80 78 75 72 69 66 63 61 59 57 55 53 51 49 47 45 44 42 41 40 38 37 35 34 33 32 30 29 28 27 26 25 25 24 23 21 20 19 18 18 18 18 18 18 18 17 18 18 17 16 16
177 175 173 170 166 160 152 145 141 139 136 133 130 127 123 119 115 112 112 112 111 109 106 103 99 96 94 91 89 87 85 83 81 78 75 72 70 67 64 62 59 57 55 54 52 51 48 46 45 43 41 39 38 37 35 34 32 31 30 28 27 26 25 24 23 22 21 21 19 18 17 16 15 15 15 15 15 15 15 14 14 14 14 13 13
176 173 170 166 159 151 144 140 138 136 133 129 126 122 119 115 113 111 110 109 107 104 101 98 95 92 90 88 86 84 82 80 77 74 70 67 64 62 60 59 56 54 52 50 49 48 46 44 42 41 39 37 35 34 32 31 29 28 27 25 24 23 22 21 20 19 18 17 16 15 14 13 12 12 12 12 12 12 12 11 11 11 11 11 11
173 170 166 158 150 144 140 138 135 132 128 125 121 117 115 113 113 111 109 105 102 98 95 93 90 88 86 84 82 80 78 75 71 68 65 63 61 59 58 56 54 52 50 48 46 44 43 41 39 38 36 34 33 31 29 27 26 25 24 22 21 20 19 18 17 16 15 14 13 12 11 10 9 9 9 9 9 9 9 9 9 9 8 9 10
170 165 157 149 143 140 138 134 131 127 123 119 116 114 113 112 110 108 105 101 98 94 91 88 86 84 82 80 78 75 72 69 66 64 62 60 58 56 54 53 51 49 47 45 43 41 40 38 36 34 33 31 29 28 26 24 23 21 20 19 18 16 15 15 14 13 12 11 10 9 7 7 6 6 6 6 6 6 6 6 7 7 7 8 9
164 156 148 142 139 137 133 129 126 122 118 115 113 112 111 109 106 103 100 97 95 92 88 85 82 80 78 76 73 71 68 66 63 61 59 57 55 52 50 48 46 44 43 41 40 38 36 35 33 31 29 27 26 24 22 21 19 18 17 15 14 13 12 11 11 10 8 8 7 5 4 4 3 3 4 4 4 4 5 5 5 6 7 8 9
156 147 141 138 136 132 128 124 120 116 114 113 111 110 107 104 101 98 95 93 90 88 85 82 78 76 73 71 69 66 64 62 60 58 56 54 52 49 47 45 43 42 40 38 37 35 33 31 29 27 25 24 22 20 19 17 16 14 13 12 10 9 8 8 7 6 5 4 3 2 1 1 1 2 3 4 4 4 4 5 5 6 7 8 9
146 140 137 135 131 127 123 119 115 113 111 110 108 106 102 99 96 94 91 89 86 84 81 78 75 72 69 66 64 62 60 58 56 54 52 50 48 46 45 43 41 39 37 36 34 32 29 27 25 24 22 20 19 17 16 14 13 12 10 9 8 6 5 4 4 3 2 1 0 1 2 3 3 3 4 4 5 5 6 6 7 8 9 10 10
139 136 134 130 125 121 117 114 112 111 109 107 104 101 98 95 92 90 87 84 82 80 77 75 72 69 66 63 60 58 55 53 51 49 47 46 45 43 41 39 37 36 34 32 30 28 26 24 22 20 19 18 16 15 13 12 11 9 8 7 6 5 3 3 2 2 2 2 3 4 5 5 5 5 6 7 7 8 9 9 10 11 11 12 13
136 132 128 123 119 116 113 111 110 108 106 104 100 97 94 91 89 86 83 80 77 75 73 70 67 65 62 59 56 54 51 49 47 46 44 43 41 39 38 36 34 32 31 29 27 25 22 21 19 18 17 15 14 13 11 10 9 8 7 6 5 4 4 3 3 4 4 5 6 7 7 8 8 9 10 10 11 12 12 12 13 13 13 13 14
132 127 122 117 114 111 109 108 107 105 103 100 96 93 91 88 85 82 79 76 73 71 69 66 63 60 57 55 53 51 49 47 45 43 42 40 38 36 34 32 31 29 27 26 24 22 20 18 17 16 15 14 13 11 10 9 8 7 7 7 6 6 6 6 6 7 7 8 9 10 10 11 12 12 13 14 14 14 14 14 14 14 15 15 16
125 120 116 112 110 108 107 105 104 101 98 95 92 89 87 84 81 78 74 71 69 66 64 61 58 56 54 52 50 48 47 45 43 41 39 37 35 33 31 30 28 27 26 24 22 21 19 18 16 15 14 13 12 10 9 9 8 8 8 8 8 8 8 9 9 10 11 12 12 13 14 15 15 15 15 15 15 15 15 15 16 17 17 18 18
118 114 111 108 107 106 105 103 100 97 94 91 88 85 82 79 76 73 70 67 64 61 59 57 54 52 51 49 47 45 43 41 39 38 36 34 33 31 30 29 27 26 25 23 22 20 19 17 16 15 14 12 11 11 10 10 10 10 9 10 10 10 11 11 12 13 14 15 16 17 17 17 17 17 17 17 17 17 18 19 19 20 21 21 21
113 110 107 105 104 103 102 99 96 93 90 87 84 81 78 75 72 68 65 63 60 57 55 53 51 49 47 46 44 42 40 38 37 35 34 33 31 30 29 28 27 26 24 23 22 21 19 18 17 15 14 13 12 12 12 12 12 11 12 12 12 13 13 14 15 16 17 18 18 18 18 18 18 19 19 20 21 21 22 23 23 23 24 24 24
109 106 104 103 102 100 98 95 91 88 85 83 80 77 74 71 67 64 61 58 56 54 51 49 48 46 44 42 40 39 37 36 35 34 32 32 31 30 29 28 27 25 24 23 22 21 19 18 17 16 15 15 14 14 14 14 14 14 14 15 15 15 16 16 17 18 18 19 19 19 20 21 21 22 23 24 24 25 25 26 26 26 26 26 25
105 103 102 101 99 96 93 90 86 84 81 78 76 73 70 66 63 60 57 55 53 51 48 47 45 43 41 39 38 36 35 34 33 32 31 31 30 29 28 27 26 25 24 23 22 21 20 20 19 18 18 17 17 17 17 17 18 18 18 18 18 19 19 19 20 21 21 22 23 23 24 25 26 27 27 27 28 28 28 28 28 27 27 27 27
101 100 99 98 95 92 88 85 82 80 77 74 72 69 66 62 59 56 54 52 50 48 46 44 42 40 38 37 36 34 33 33 32 31 30 30 29 28 28 27 27 26 25 24 24 23 23 22 22 21 21 21 20 21 21 21 22 22 22 23 23 24 24 24 25 26 26 27 27 28 28 29 29 30 30 30 30 29 29 29 29 29 29 30 30
98 98 96 94 91 87 84 81 78 76 73 71 68 65 62 59 56 53 51 49 47 45 43 41 40 38 37 35 34 33 32 31 31 30 29 29 29 29 28 28 28 27 27 27 26 26 26 25 25 25 25 24 25 25 26 26 27 27 28 28 29 29 29 29 30 30 30 31 31 31 31 31 31 32 32 32 32 31 31 31 32 32 32 32 32
96 95 93 90 86 82 79 77 74 72 69 67 64 60 58 55 52 50 48 46 44 43 41 39 38 36 35 33 32 32 31 30 30 30 29 29 29 29 29 28 28 28 28 28 28 28 28 28 28 28 28 28 29 29 30 31 31 32 32 32 33 33 33 33 33 33 33 34 34 34 34 34 34 34 34 34 34 34 34 34 34 33 33 32 31
93 92 89 85 82 78 76 73 70 68 65 62 59 56 54 51 49 47 45 44 42 40 39 37 36 34 33 32 32 31 30 30 30 30 30 30 29 29 29 28 28 29 29 29 29 29 29 29 30 30 30 30 31 32 32 33 34 34 35 35 35 36 36 36 36 37 37 37 37 37 37 37 37 36 36 36 36 35 34 34 33 32 31 30 29
90 88 85 81 78 75 72 70 67 64 61 58 55 53 50 48 47 45 43 41 40 38 37 35 34 33 32 32 31 31 30 30 30 30 30 30 29 29 29 29 29 30 30 30 30 30 31 31 32 33 33 34 35 36 36 37 38 38 39 39 40 40 40 40 41 41 41 40 40 40 39 38 38 37 36 36 35 34 33 32 31 31 30 29 29
Wind_Direction
330 330 330 330 330 330 329 328 327 326 326 326 325 325 324 324 324 323 323 322 322 321 321 320 319 318 317 316 316 315 314 313 312 312 311 311 310 310 309 309 309 308 307 306 305 304 303 302 301 300 299 298 297 296 295 294 293 293 292 291 291 290 289 289 288 288 287 286 285 285 284 284 284 284 284 283 283 283 283 284 284 284 284 285 285
330 330 330 330 330 329 328 327 327 326 326 325 325 324 324 323 323 322 322 321 321 321 320 319 319 318 317 316 315 314 314 313 312 312 311 311 311 310 310 309 309 308 307 306 305 304 303 302 301 300 299 298 297 296 295 294 293 293 292 291 291 290 290 289 289 288 288 287 286 286 286 285 285 285 284 284 284 284 284 284 284 284 284 284 284
329 329 329 329 329 329 328 327 326 326 325 324 324 323 323 322 322 321 321 321 320 320 319 318 318 317 316 316 315 314 313 313 312 312 312 311 311 311 310 310 309 308 307 306 305 304 303 302 301 300 299 298 297 296 295 295 294 293 293 292 292 291 290 290 290 289 289 288 288 287 287 286 286 286 285 285 285 285 285 284 284 283 283 282 282
328 328 329 329 329 328 327 327 326 325 324 324 323 322 322 321 321 321 320 320 319 319 318 317 317 316 316 315 314 314 313 313 313 312 312 312 311 311 310 309 309 308 307 306 305 304 304 303 302 301 300 299 298 297 296 295 295 294 294 293 293 292 291 291 291 290 289 289 288 288 287 287 287 286 286 286 285 285 285 284 283 283 282 281 281
328 328 328 328 328 327 327 326 325 324 323 323 322 321 321 321 320 320 320 319 318 318 317 317 316 316 315 314 314 314 313 313 313 312 312 312 311 311 310 309 309 308 307 306 305 305 304 303 302 301 300 299 299 298 297 297 296 296 295 294 294 293 292 292 291 290 290 289 288 288 287 287 286 286 286 285 285 285 284 284 283 282 281 281 280
327 327 327 328 328 327 326 326 325 324 323 322 321 321 320 320 320 320 319 318 318 317 317 316 316 315 314 314 314 314 313 313 313 312 312 312 311 311 310 309 308 307 307 306 306 305 304 303 302 301 301 300 299 299 298 297 297 296 296 295 294 293 293 292 291 291 290 290 289 288 287 287 286 286 285 285 285 284 284 284 283 282 281 281 280
327 327 327 327 327 327 326 325 324 323 322 321 320 320 320 320 319 319 318 318 317 317 316 315 315 314 314 314 314 314 314 313 313 313 312 312 311 310 310 309 308 307 306 306 305 304 303 303 302 301 301 300 299 299 298 297 297 296 295 294 293 293 292 292 291 291 291 290 289 288 288 287 287 286 285 284 284 284 284 283 283 282 281 281 280
327 327 327 327 326 326 325 324 323 322 321 320 320 320 319 319 319 319 318 317 317 316 315 315 314 314 314 314 314 314 314 313 313 312 311 310 310 309 308 307 306 306 306 305 304 303 303 302 302 301 300 299 299 298 297 296 296 295 294 293 293 292 292 292 292 291 291 290 290 289 288 288 287 286 285 285 284 284 284 283 282 282 281 281 280
327 327 327 326 326 325 324 323 322 321 320 320 320 319 319 319 319 318 318 317 316 315 315 315 315 314 314 314 314 313 313 312 311 310 309 309 308 308 307 306 306 305 305 304 303 302 302 301 301 300 300 299 298 298 297 296 295 295 294 293 293 293 292 292 292 291 291 290 290 289 289 288 287 286 286 285 285 284 284 283 282 281 281 281 280
326 326 326 325 325 324 323 322 321 321 320 320 320 320 320 319 319 318 317 316 316 315 315 314 314 314 313 313 312 312 311 311 310 309 308 308 308 307 306 306 305 305 304 303 303 302 302 301 301 300 299 299 298 298 297 296 295 295 294 294 293 293 293 292 292 291 291 290 290 289 289 288 287 287 287 287 286 285 284 283 282 282 281 281 280
326 326 325 324 324 323 322 322 321 320 320 320 320 320 319 319 318 317 316 315 315 314 313 313 312 312 312 312 312 311 311 310 310 309 309 309 308 307 306 306 305 304 303 303 302 302 301 301 300 300 299 298 298 297 297 296 296 295 295 294 294 293 292 292 291 291 291 291 290 290 289 288 288 288 287 287 286 285 284 283 282 282 281 280 280
325 325 324 323 323 322 322 321 320 320 320 320 320 319 319 318 317 316 315 314 314 313 313 312 312 312 312 312 312 312 311 311 310 310 309 309 308 307 307 306 305 304 303 303 302 302 301 301 300 299 299 298 298 297 297 296 296 295 295 294 294 293 292 292 292 292 292 292 291 290 289 288 288 287 287 286 285 284 283 283 282 281 280 279 279
325 324 323 323 322 321 321 320 320 320 320 319 319 318 318 317 316 316 315 314 313 313 313 313 313 313 313 313 312 312 311 311 310 309 309 308 307 307 306 305 304 304 303 303 302 302 301 301 300 299 299 298 297 297 296 296 295 295 295 295 294 294 293 293 293 292 292 291 290 289 288 287 287 286 286 285 284 283 283 282 281 280 279 278 278
324 323 323 322 321 321 321 320 320 319 319 319 319 318 318 317 316 315 315 314 313 313 313 313 313 313 313 313 312 311 311 310 309 309 309 308 307 306 306 305 304 304 303 303 302 302 301 301 300 299 299 298 297 297 296 296 296 296 295 295 295 294 293 293 292 291 290 290 289 288 287 287 286 286 285 284 284 283 282 281 280 279 279 277 276
323 323 322 322 321 321 320 320 319 319 319 319 319 318 318 317 316 315 314 314 313 313 313 313 313 313 313 312 312 311 311 310 309 309 308 308 307 306 305 305 304 304 303 303 302 302 301 301 300 299 299 298 297 297 297 297 296 296 295 295 294 293 293 292 291 290 290 289 288 287 287 287 286 285 284 284 283 282 282 281 280 279 278 276 275
323 323 322 322 321 321 320 319 319 319 319 319 318 318 317 316 315 314 314 313 313 313 314 314 314 313 313 312 312 311 310 310 309 309 308 307 307 306 305 305 304 304 303 303 302 302 301 301 300 299 299 298 298 297 297 296 296 295 295 294 293 292 292 292 291 290 289 289 288 287 287 286 285 285 284 283 283 282 281 280 279 278 276 275 273
323 322 322 321 321 320 319 319 319 319 319 319 318 317 316 315 314 314 314 314 314 314 314 314 314 313 313 312 312 311 311 310 309 309 308 307 306 306 305 305 304 304 303 303 302 302 301 300 300 299 299 298 298 297 297 296 295 295 294 293 292 292 291 291 290 289 289 288 288 287 286 286 285 285 284 283 282 282 281 279 278 276 275 273 272
322 322 321 321 320 319 319 319 319 319 319 318 317 316 315 315 315 315 315 315 315 315 315 314 314 313 313 312 312 311 311 310 309 309 308 307 306 306 305 305 304 304 303 303 302 301 301 300 299 299 298 297 297 296 296 295 294 294 293 292 292 291 291 290 290 289 289 288 287 287 286 285 285 284 284 283 282 281 279 278 276 274 273 271 270
322 322 321 320 319 319 319 319 319 319 319 318 317 316 316 316 316 316 316 316 315 315 314 314 314 313 313 312 312 311 310 310 309 308 308 307 306 306 305 305 304 304 303 302 302 301 300 299 299 298 297 296 296 295 295 294 294 293 293 292 291 291 290 290 290 289 289 288 287 287 286 285 284 284 283 282 281 279 278 276 274 272 271 269 268
322 321 320 319 319 319 319 319 319 319 318 317 317 316 316 316 316 316 316 316 315 315 314 314 314 313 313 312 312 311 310 310 309 308 307 307 306 306 305 304 304 303 302 302 301 300 300 299 298 298 297 296 296 296 295 295 294 294 293 292 291 291 291 290 290 290 289 288 287 286 286 285 284 284 283 281 279 278 276 274 272 270 269 267 265
321 320 319 319 319 319 319 319 319 319 318 317 317 317 317 317 316 316 316 315 315 315 314 314 314 314 313 312 312 311 310 309 309 308 307 307 306 305 305 304 303 302 302 301 301 300 300 300 299 298 298 297 297 297 296 296 295 294 293 293 292 291 291 291 290 290 289 288 287 286 286 285 284 283 281 280 278 277 275 273 271 269 267 265 263
321 320 319 319 319 319 320 319 319 318 318 317 317 317 317 317 316 316 316 316 315 315 315 314 314 314 313 312 312 311 310 309 309 308 307 306 306 305 304 304 303 303 303 302 302 302 302 301 301 300 299 299 298 298 297 296 296 295 294 293 292 292 291 291 291 290 289 288 288 287 286 285 284 282 281 279 277 276 273 271 268 267 265 263 261
320 319 319 319 320 320 320 319 319 318 318 318 318 318 317 317 317 316 316 316 316 315 315 315 314 314 313 312 312 311 310 309 308 308 307 306 306 305 305 305 305 305 305 305 305 304 303 302 302 301 301 300 300 299 298 297 297 296 295 294 293 293 292 292 291 291 290 289 288 287 286 285 284 282 280 278 276 274 272 269 267 265 263 261 258
320 319 319 320 320 320 319 319 319 318 318 318 318 318 317 317 317 317 316 316 316 316 315 315 314 314 313 312 311 311 310 309 309 308 308 307 307 307 307 307 307 307 307 307 306 305 304 303 303 302 302 301 301 300 299 298 297 297 296 295 294 294 293 293 292 291 290 290 289 287 286 285 284 282 280 278 276 273 270 267 265 262 260 259 256
320 320 320 320 320 320 320 319 319 319 319 318 318 318 318 317 317 317 317 316 316 316 315 315 314 313 313 312 311 311 310 310 309 309 309 309 309 309 309 309 309 309 308 308 307 306 305 304 304 303 302 302 301 300 299 299 298 297 297 296 295 295 295 294 293 292 291 290 289 288 286 285 283 282 279 277 274 272 268 266 263 260 258 256 255
320 320 320 320 320 320 320 319 319 319 319 319 318 318 318 318 317 317 317 317 316 316 315 314 314 313 312 312 312 311 311 311 311 311 311 311 311 311 311 310 310 309 309 308 307 306 305 305 304 304 303 302 302 301 301 300 300 299 298 297 297 297 296 295 294 293 292 290 289 287 286 285 283 281 279 276 273 270 267 265 262 259 257 255 253
320 320 320 321 320 320 320 320 320 319 319 319 318 318 318 318 318 317 317 316 316 315 315 314 314 313 313 313 313 313 313 313 313 313 313 313 313 312 312 311 310 310 309 309 308 307 306 306 305 305 304 304 303 303 303 302 302 301 300 300 299 298 297 296 295 293 292 290 289 287 286 285 283 281 278 276 273 270 267 264 261 258 255 253 251
321 321 321 321 320 320 320 320 320 319 319 319 318 318 318 318 318 317 317 316 316 315 315 315 315 314 315 315 315 315 315 314 314 314 314 314 314 313 312 312 312 312 311 310 310 309 308 308 307 307 306 305 304 304 304 304 303 303 302 301 300 299 298 297 295 293 291 290 288 287 286 285 283 281 278 275 272 269 266 262 259 257 254 251 250
321 321 321 321 321 321 320 320 319 319 319 319 319 319 319 318 318 317 316 316 316 316 316 316 316 316 316 316 316 316 316 315 315 315 315 315 314 314 314 314 314 314 313 313 312 311 311 310 310 309 307 307 306 306 306 306 305 303 302 301 300 299 298 297 295 293 291 290 288 287 286 285 283 280 277 274 271 267 263 260 258 255 252 250 247
321 321 321 321 321 321 320 320 319 319 319 319 319 319 319 318 317 317 317 317 316 317 317 317 317 317 317 317 316 316 316 316 316 316 316 315 315 315 315 315 315 315 315 314 314 313 313 312 312 311 310 309 309 308 307 306 305 304 302 301 301 299 298 297 295 293 292 290 289 287 286 283 281 278 274 271 268 265 261 258 255 253 250 247 245
322 322 321 321 321 320 320 320 320 320 320 320 319 319 318 318 318 317 318 318 318 318 318 318 318 318 317 317 317 316 316 316 316 316 316 316 316 316 316 316 316 316 316 315 315 315 314 314 313 312 312 311 310 309 308 307 306 304 303 302 301 300 299 297 295 294 291 290 289 287 285 282 278 275 271 267 265 262 259 256 253 251 248 245 241
322 322 322 321 321 320 320 320 320 320 320 320 319 319 318 318 318 318 319 319 319 319 319 319 319 318 318 318 317 317 317 317 317 317 318 317 317 317 317 317 317 317 317 317 316 316 316 316 315 314 313 313 312 310 309 308 307 306 304 303 301 300 298 297 295 293 291 289 288 285 282 278 274 271 267 264 262 260 257 254 251 248 245 241 237
322 322 321 321 320 320 321 321 321 320 320 319 319 319 319 319 320 320 320 320 320 320 320 320 319 319 319 319 319 318 318 318 319 319 319 319 319 319 318 318 318 319 319 318 318 318 318 318 317 316 316 315 314 312 311 309 308 307 305 304 302 300 299 297 294 292 290 288 286 283 279 274 269 265 262 261 260 258 255 252 248 244 238 233 229
322 322 321 321 321 321 321 321 321 320 320 320 320 320 320 321 321 321 321 320 320 320 320 320 321 321 320 320 320 320 320 320 320 320 319 320 320 320 320 320 321 321 321 320 320 320 320 319 318 318 318 317 315 314 312 311 309 308 306 305 304 303 301 297 294 292 289 286 284 281 277 272 266 261 260 258 257 256 252 247 243 237 228 221 216
322 322 321 321 321 321 321 321 321 320 320 320 321 321 322 322 322 321 321 321 321 321 322 322 322 322 322 322 321 321 321 320 320 321 321 322 322 322 322 322 322 322 322 322 322 322 322 321 321 320 320 319 317 315 314 313 312 310 309 308 307 305 302 299 295 292 290 287 284 281 277 271 264 257 253 251 249 247 242 237 231 224 214 206 203
322 321 321 322 322 322 321 321 321 321 321 322 322 322 322 322 322 323 323 322 323 323 323 324 324 324 324 323 323 322 322 322 323 323 324 324 323 324 324 324 324 324 325 324 324 324 324 324 323 323 323 321 320 319 318 317 316 314 313 312 310 308 305 302 299 297 295 292 289 285 278 270 259 244 234 227 224 223 220 215 208 201 194 191 190
322 322 322 322 322 322 321 321 321 322 322 323 323 323 323 323 324 324 323 324 324 324 325 325 325 325 325 324 324 324 324 324 325 325 325 325 325 326 327 328 328 328 327 326 326 326 326 326 326 326 326 325 324 324 324 323 321 320 318 317 315 314 312 309 306 306 307 303 298 290 277 227 203 197 190 187 184 181 181 180 178 176 175 176 175
322 322 323 322 322 322 322 322 323 323 323 323 323 324 324 325 325 325 325 325 325 325 326 326 326 326 326 326 326 326 326 326 327 327 327 328 329 330 330 331 330 329 329 329 329 329 330 330 330 330 330 330 330 331 330 329 328 326 325 324 324 325 323 319 320 329 336 344 52 108 123 132 141 152 152 149 145 144 146 151 154 156 159 161 161
323 323 323 322 322 322 323 324 324 324 324 324 325 325 326 326 326 326 326 326 326 327 327 327 328 328 328 328 328 328 328 328 329 330 330 331 332 332 332 332 332 332 331 332 332 334 334 335 335 335 336 337 338 339 339 337 336 336 336 339 344 347 351 356 18 53 82 102 110 115 119 122 126 129 127 124 126 129 135 142 146 150 154 155 155
324 323 323 323 323 324 324 324 325 325 325 326 326 327 327 327 327 327 327 328 328 328 329 329 329 329 329 329 330 330 331 332 333 333 334 334 334 334 335 335 335 335 335 336 338 339 339 340 341 342 343 344 347 349 350 350 351 353 360 9 21 31 44 60 79 92 100 105 109 112 115 116 117 117 116 119 125 132 138 143 145 147 148 148 147
324 323 323 324 325 325 325 325 326 326 327 327 328 328 328 328 328 328 329 329 330 330 330 330 331 331 331 332 332 333 335 336 337 337 337 337 337 338 339 339 340 340 341 343 344 345 346 347 349 350 352 354 356 359 2 5 11 19 30 42 54 66 74 84 91 96 101 104 108 110 111 112 113 116 121 126 131 136 139 139 138 136 136 135 135
324 324 325 326 326 326 326 327 327 328 328 328 328 329 328 329 329 330 330 331 331 332 332 332 333 333 334 335 336 337 338 339 340 340 341 342 342 343 344 345 346 348 349 351 352 354 356 357 358 0 3 5 8 12 16 22 31 42 52 63 73 80 87 92 98 101 105 107 109 110 112 115 118 123 126 129 130 130 129 127 125 125 126 127 128
325 326 327 327 327 327 328 328 329 329 329 329 329 329 330 330 331 331 332 333 333 333 334 335 335 337 338 339 340 340 341 342 343 344 345 347 348 349 351 352 354 356 357 359 2 4 6 7 9 12 16 19 23 28 33 41 50 58 67 75 83 89 94 98 102 105 108 111 113 116 119 123 125 125 125 123 121 121 120 120 120 121 122 124 126
327 328 328 328 328 329 329 329 330 330 330 330 330 330 331 331 332 333 334 334 335 336 337 338 339 340 341 341 342 343 344 346 348 349 351 352 354 356 358 0 2 3 5 8 10 13 15 17 21 24 28 32 37 42 49 56 63 70 77 83 88 94 98 103 106 109 112 115 118 120 121 121 120 118 117 116 116 117 117 118 119 120 122 123 124
329 329 329 329 330 330 330 330 330 331 331 331 331 332 332 333 334 335 336 337 338 339 340 341 342 343 344 344 346 347 349 351 352 354 357 359 2 4 5 7 9 12 14 16 18 20 23 27 31 34 38 42 47 53 59 65 71 76 80 85 90 95 100 103 106 109 111 113 113 114 114 113 113 113 113 114 115 116 117 118 119 120 121 122 123
330 330 330 331 331 331 331 331 331 332 332 332 333 333 334 335 336 337 339 340 341 343 344 345 346 346 347 349 351 352 354 356 358 1 4 7 8 10 13 15 18 20 23 25 27 30 33 37 41 44 48 52 57 62 67 71 75 79 83 87 90 94 96 99 101 103 104 106 107 108 109 110 112 113 114 115 116 117 118 119 119 120 120 120 119
331 331 332 332 332 332 332 333 333 333 334 334 334 335 336 337 338 340 341 343 344 346 347 348 349 351 352 354 356 358 0 3 6 9 11 13 16 18 21 24 27 29 31 34 37 40 43 46 50 53 57 61 65 69 73 76 80 83 86 88 91 92 94 96 98 100 102 104 106 108 110 111 112 113 114 115 115 116 116 117 117 116 115 115 114
332 333 333 333 333 333 334 334 335 335 335 336 336 337 338 339 341 343 345 346 348 350 351 352 354 355 357 359 2 5 8 11 13 16 19 21 24 27 30 32 34 37 40 43 46 49 52 55 58 62 65 69 73 76 79 82 84 86 88 89 91 93 95 98 100 102 103 105 106 108 109 110 110 111 112 113 113 113 113 113 113 112 111 111 111
334 334 335 335 335 335 336 336 337 337 337 338 338 339 341 342 344 346 349 351 352 354 355 357 359 1 3 6 10 13 16 19 21 24 27 30 33 35 37 40 43 46 49 52 55 58 61 64 67 70 74 76 79 81 83 85 87 88 90 92 94 95 97 98 100 101 102 104 105 106 106 108 109 109 110 110 110 110 109 109 108 108 108 108 108
336 336 336 336 337 337 338 338 339 339 340 340 341 343 344 347 349 351 353 355 357 359 0 3 5 8 11 14 18 21 24 27 29 32 35 37 40 42 45 48 51 54 57 60 62 65 68 71 74 76 78 79 81 83 84 86 88 89 91 92 94 95 97 98 99 100 102 103 104 105 106 107 107 107 107 106 106 106 105 105 105 104 104 104 103
338 338 338 339 339 340 340 341 341 342 342 343 345 347 349 352 354 356 358 0 2 4 6 8 11 15 18 21 25 28 31 34 36 39 41 44 47 50 53 55 57 60 62 64 67 69 71 74 76 78 79 81 82 84 85 87 88 90 91 93 94 95 97 98 100 101 102 102 103 103 103 103 103 102 102 102 102 101 101 100 100 99 98 97 96